Powrót do katalogu

DELTA 1 DEB

AktywnyLEO
NORAD 10661·DEBRIS·🇺🇸 United States

Wystrzelony Jul 29, 1976 z Vandenberg Space Force Base

Loading…

Następne Przeloty (najbliższe 24 godziny)

TLE

ŚwieżeSource: Space-Track

Epoka: Sep 14, 2026, 10:43 UTC

1 10661U 76077X   26257.44675288  .00001120  00000-0  21704-2 0  9997
2 10661 101.1774 241.0203 0107365 188.2887 324.3581 13.37366646346726

Śledź DELTA 1 DEB w czasie rzeczywistym z AllMySat

Download on the App Store